Temp
-6 -7 -7 -7 -7 -7 -7 -7 -7 -7 -7 -7 -7 -8 -8 -8 -8 -8 -8 -9 -9 -9 -9 -9 -9 -9 -8 -8 -8 -8 -7 -7 -7 -7 -7 -8 -8 -8 -8 -9 -9 -9 -9
-7 -8 -8 -7 -8 -8 -8 -7 -7 -7 -6 -8 -8 -8 -8 -8 -9 -8 -9 -9 -9 -9 -9 -9 -9 -9 -8 -8 -8 -8 -8 -8 -7 -7 -7 -8 -8 -8 -9 -9 -9 -10 -10
-7 -7 -8 -8 -8 -8 -9 -7 -7 -7 -7 -7 -8 -8 -8 -8 -9 -8 -8 -9 -9 -9 -9 -9 -10 -9 -9 -8 -8 -8 -8 -8 -8 -8 -8 -8 -8 -9 -9 -9 -10 -10 -10
-7 -7 -7 -7 -8 -8 -9 -7 -7 -7 -6 -7 -8 -8 -8 -9 -8 -8 -8 -9 -9 -9 -9 -10 -10 -9 -8 -9 -8 -8 -8 -8 -8 -8 -8 -8 -9 -9 -9 -9 -10 -10 -10
-6 -6 -7 -8 -8 -8 -8 -8 -8 -7 -7 -7 -8 -8 -8 -9 -8 -8 -8 -9 -9 -9 -9 -10 -10 -10 -9 -9 -8 -8 -8 -8 -8 -8 -9 -9 -9 -9 -9 -10 -10 -11 -11
-6 -6 -7 -7 -8 -8 -7 -7 -7 -7 -7 -7 -7 -8 -8 -8 -8 -9 -9 -9 -9 -9 -9 -9 -10 -10 -10 -9 -9 -9 -9 -9 -9 -9 -9 -9 -9 -9 -9 -9 -10 -12 -13
-7 -8 -7 -7 -7 -7 -7 -8 -8 -8 -8 -7 -8 -8 -8 -8 -9 -9 -9 -9 -9 -9 -9 -9 -9 -10 -10 -9 -9 -9 -9 -9 -9 -9 -9 -9 -10 -10 -9 -10 -10 -11 -12
-7 -7 -7 -7 -7 -7 -7 -7 -8 -8 -8 -8 -8 -8 -8 -8 -9 -9 -9 -9 -9 -9 -10 -9 -9 -10 -10 -10 -9 -9 -9 -9 -9 -9 -9 -9 -10 -10 -9 -10 -11 -11 -12
-6 -7 -7 -6 -7 -7 -7 -8 -8 -8 -8 -8 -8 -8 -8 -8 -9 -9 -9 -9 -9 -9 -10 -10 -9 -10 -10 -10 -10 -10 -10 -10 -10 -10 -10 -9 -10 -9 -10 -11 -11 -12 -13
-6 -7 -7 -7 -8 -8 -8 -8 -8 -8 -8 -8 -8 -9 -9 -9 -9 -9 -9 -9 -9 -9 -10 -10 -10 -10 -10 -10 -10 -10 -10 -10 -11 -10 -10 -10 -10 -10 -10 -11 -12 -13 -13
-7 -7 -7 -7 -7 -8 -8 -8 -8 -8 -8 -8 -9 -8 -8 -9 -9 -9 -9 -9 -9 -9 -10 -10 -10 -10 -10 -10 -10 -10 -10 -10 -10 -10 -10 -10 -10 -10 -11 -12 -13 -13 -13
-6 -7 -7 -7 -7 -7 -7 -7 -7 -7 -7 -7 -8 -9 -9 -9 -9 -9 -10 -10 -9 -10 -10 -11 -11 -11 -11 -11 -10 -10 -10 -10 -10 -10 -10 -10 -10 -11 -12 -12 -13 -13 -14
-6 -7 -7 -8 -8 -8 -8 -8 -8 -8 -7 -8 -7 -8 -8 -9 -9 -10 -10 -10 -10 -10 -10 -11 -11 -11 -11 -10 -11 -10 -10 -10 -10 -10 -10 -10 -10 -11 -12 -13 -13 -14 -14
-7 -8 -8 -8 -8 -8 -8 -8 -8 -8 -9 -8 -8 -9 -9 -8 -9 -8 -10 -10 -10 -9 -10 -10 -10 -10 -9 -10 -10 -10 -9 -10 -10 -10 -10 -10 -10 -11 -12 -13 -14 -14 -14
-8 -8 -8 -8 -8 -8 -8 -8 -9 -8 -8 -8 -9 -9 -9 -9 -8 -8 -9 -10 -9 -9 -9 -9 -9 -8 -9 -10 -9 -10 -9 -9 -10 -10 -10 -10 -11 -11 -13 -13 -14 -14 -14
-8 -8 -8 -8 -8 -8 -8 -8 -9 -9 -8 -9 -9 -9 -9 -9 -9 -9 -9 -9 -9 -9 -9 -10 -9 -8 -10 -9 -10 -10 -9 -10 -10 -10 -10 -11 -11 -12 -13 -14 -14 -14 -14
-8 -8 -8 -7 -7 -7 -7 -7 -8 -8 -8 -8 -9 -9 -9 -9 -9 -9 -9 -9 -9 -9 -8 -8 -9 -9 -10 -9 -10 -10 -10 -10 -11 -11 -10 -11 -11 -12 -13 -14 -14 -14 -14
-7 -8 -7 -7 -7 -6 -6 -6 -6 -7 -7 -7 -8 -9 -9 -9 -9 -9 -9 -9 -9 -9 -8 -9 -9 -10 -10 -10 -10 -11 -11 -11 -11 -11 -11 -11 -11 -12 -13 -14 -14 -14 -14
-8 -8 -7 -7 -6 -7 -7 -7 -7 -7 -6 -6 -6 -7 -8 -9 -9 -9 -10 -10 -9 -9 -9 -9 -10 -9 -9 -9 -10 -10 -11 -11 -11 -11 -11 -11 -12 -13 -13 -14 -14 -14 -14
-8 -8 -7 -7 -7 -6 -7 -7 -6 -6 -6 -5 -5 -7 -8 -8 -9 -9 -10 -10 -10 -10 -10 -10 -10 -9 -9 -10 -9 -10 -10 -11 -11 -11 -12 -11 -12 -12 -13 -14 -14 -14 -14
-8 -8 -8 -7 -7 -7 -8 -8 -7 -6 -6 -7 -7 -6 -8 -10 -11 -11 -10 -10 -11 -9 -11 -11 -10 -10 -10 -10 -11 -10 -10 -11 -11 -12 -12 -12 -12 -12 -13 -14 -14 -14 -14
-9 -8 -8 -8 -8 -8 -8 -7 -8 -6 -7 -7 -8 -9 -9 -10 -11 -10 -10 -10 -10 -10 -10 -11 -10 -10 -10 -10 -10 -10 -11 -11 -11 -11 -12 -12 -12 -13 -13 -14 -14 -14 -14
-9 -9 -9 -9 -9 -8 -9 -8 -8 -7 -9 -10 -10 -10 -10 -11 -10 -11 -11 -11 -10 -10 -11 -11 -11 -10 -10 -10 -10 -11 -11 -11 -12 -12 -12 -12 -12 -13 -13 -14 -14 -14 -15
-10 -10 -10 -9 -9 -9 -9 -9 -8 -9 -8 -9 -10 -10 -10 -10 -11 -11 -11 -11 -11 -11 -10 -10 -10 -11 -10 -10 -11 -11 -11 -11 -12 -12 -12 -12 -13 -13 -13 -14 -14 -15 -15
-10 -10 -10 -10 -10 -10 -10 -10 -10 -10 -11 -10 -10 -11 -10 -11 -11 -11 -11 -11 -11 -11 -11 -11 -10 -10 -11 -11 -12 -12 -12 -12 -12 -12 -13 -13 -13 -13 -14 -14 -15 -15 -15
-11 -11 -11 -10 -10 -10 -10 -10 -11 -11 -11 -10 -10 -10 -11 -11 -11 -10 -11 -11 -10 -10 -10 -11 -11 -11 -12 -12 -12 -12 -12 -13 -13 -13 -13 -13 -13 -13 -14 -14 -15 -15 -15
Height
5896 5897 5899 5901 5901 5902 5904 5905 5906 5907 5908 5909 5909 5909 5911 5913 5915 5916 5918 5918 5917 5917 5917 5915 5913 5911 5908 5906 5903 5900 5899 5896 5895 5892 5888 5885 5881 5879 5877 5875 5873 5868 5865
5893 5893 5895 5897 5898 5899 5900 5901 5902 5903 5903 5904 5905 5906 5907 5908 5910 5912 5914 5915 5915 5914 5914 5911 5909 5908 5906 5903 5899 5898 5895 5892 5890 5887 5884 5882 5879 5875 5872 5870 5867 5865 5859
5889 5890 5891 5893 5895 5896 5896 5896 5897 5897 5898 5899 5901 5902 5902 5904 5906 5907 5909 5911 5912 5911 5909 5906 5905 5902 5901 5900 5897 5894 5892 5889 5886 5882 5878 5875 5873 5871 5868 5864 5861 5857 5854
5884 5886 5887 5889 5891 5892 5892 5892 5892 5893 5893 5893 5894 5895 5896 5898 5901 5903 5905 5907 5908 5907 5905 5903 5900 5899 5898 5895 5893 5891 5888 5885 5881 5878 5874 5870 5866 5862 5860 5858 5854 5849 5845
5879 5880 5883 5885 5887 5887 5888 5888 5889 5889 5889 5888 5889 5890 5891 5892 5895 5898 5901 5903 5903 5902 5901 5898 5897 5895 5894 5892 5889 5886 5883 5881 5876 5872 5868 5864 5859 5854 5851 5847 5843 5838 5832
5874 5876 5879 5880 5882 5884 5883 5883 5883 5884 5884 5884 5884 5885 5886 5887 5889 5892 5895 5897 5897 5897 5895 5893 5892 5891 5888 5887 5885 5882 5878 5874 5869 5865 5861 5857 5852 5846 5842 5838 5833 5827 5824
5869 5870 5873 5874 5876 5878 5878 5878 5879 5880 5880 5880 5879 5879 5880 5882 5884 5886 5888 5890 5891 5891 5890 5887 5886 5884 5882 5880 5878 5875 5871 5867 5862 5858 5854 5849 5844 5839 5833 5829 5823 5819 5813
5862 5864 5866 5868 5870 5871 5871 5873 5874 5874 5875 5874 5874 5873 5873 5875 5877 5879 5880 5881 5882 5882 5882 5881 5878 5877 5876 5874 5871 5867 5864 5860 5856 5851 5847 5840 5835 5832 5827 5821 5816 5810 5804
5855 5859 5860 5862 5863 5863 5864 5867 5867 5867 5868 5868 5868 5868 5869 5870 5871 5872 5871 5871 5873 5874 5873 5871 5869 5869 5869 5865 5864 5860 5856 5851 5846 5843 5838 5832 5828 5822 5816 5812 5807 5800 5795
5848 5850 5850 5851 5853 5855 5857 5857 5858 5859 5860 5860 5860 5861 5861 5862 5863 5862 5861 5861 5860 5862 5863 5862 5860 5859 5858 5857 5856 5852 5848 5842 5838 5833 5829 5825 5820 5813 5808 5804 5799 5794 5787
5838 5840 5842 5844 5845 5847 5847 5848 5848 5848 5848 5849 5850 5852 5853 5852 5852 5850 5849 5847 5850 5851 5851 5852 5852 5848 5848 5846 5845 5843 5838 5832 5828 5823 5820 5817 5811 5806 5801 5796 5792 5787 5781
5827 5830 5833 5835 5837 5837 5837 5837 5837 5839 5837 5838 5839 5840 5843 5843 5843 5843 5840 5838 5840 5840 5840 5840 5837 5836 5835 5833 5834 5831 5828 5823 5820 5815 5811 5808 5803 5799 5795 5789 5784 5780 5774
5816 5819 5820 5823 5825 5827 5827 5827 5825 5827 5826 5826 5827 5828 5829 5830 5827 5829 5828 5825 5828 5825 5826 5822 5817 5816 5817 5818 5822 5821 5816 5813 5809 5804 5802 5799 5795 5792 5787 5781 5777 5773 5766
5806 5808 5810 5812 5814 5815 5815 5815 5814 5813 5813 5812 5815 5814 5814 5818 5819 5817 5813 5813 5810 5809 5807 5797 5797 5801 5797 5803 5809 5809 5805 5801 5797 5794 5793 5790 5788 5784 5780 5774 5770 5765 5759
5795 5798 5800 5801 5802 5803 5803 5802 5801 5801 5800 5800 5800 5803 5797 5801 5804 5801 5795 5795 5795 5796 5789 5766 5776 5775 5785 5791 5798 5795 5794 5791 5787 5784 5784 5781 5778 5775 5771 5767 5764 5760 5752
5781 5783 5785 5786 5787 5787 5786 5785 5785 5785 5784 5785 5784 5783 5784 5784 5783 5779 5778 5779 5780 5779 5772 5771 5773 5777 5776 5783 5784 5783 5781 5779 5777 5775 5774 5772 5770 5767 5763 5761 5758 5752 5746
5768 5770 5771 5771 5770 5770 5768 5765 5762 5762 5762 5761 5759 5761 5766 5770 5770 5762 5765 5765 5766 5763 5754 5759 5764 5768 5772 5772 5771 5769 5769 5767 5766 5765 5765 5763 5760 5758 5754 5753 5752 5746 5741
5755 5756 5756 5756 5755 5753 5751 5745 5741 5742 5742 5739 5735 5737 5740 5744 5747 5746 5749 5747 5749 5749 5748 5749 5755 5757 5757 5759 5759 5759 5756 5756 5756 5756 5755 5753 5752 5749 5746 5745 5744 5738 5736
5739 5740 5741 5741 5740 5737 5732 5726 5723 5719 5718 5715 5703 5708 5710 5714 5720 5728 5733 5735 5738 5734 5730 5736 5743 5744 5745 5748 5749 5745 5744 5745 5745 5746 5745 5744 5743 5739 5739 5736 5734 5731 5729
5724 5724 5725 5726 5723 5721 5716 5711 5706 5702 5690 5670 5664 5653 5667 5686 5702 5713 5717 5719 5724 5724 5714 5721 5733 5732 5735 5739 5738 5732 5733 5734 5735 5735 5736 5736 5733 5731 5730 5729 5727 5724 5721
5710 5710 5711 5711 5709 5705 5701 5698 5693 5684 5677 5665 5654 5627 5637 5657 5678 5688 5695 5702 5705 5708 5706 5713 5719 5718 5723 5724 5719 5721 5721 5723 5724 5726 5727 5726 5725 5723 5721 5719 5718 5715 5714
5693 5694 5696 5695 5692 5691 5690 5688 5683 5674 5665 5662 5656 5652 5651 5661 5672 5680 5678 5680 5688 5693 5698 5701 5704 5707 5710 5710 5709 5711 5711 5714 5715 5717 5717 5717 5716 5714 5712 5710 5709 5709 5705
5674 5678 5678 5679 5679 5679 5677 5677 5674 5664 5666 5659 5656 5655 5657 5665 5670 5674 5675 5680 5682 5687 5691 5693 5693 5696 5697 5697 5699 5700 5702 5704 5705 5706 5706 5706 5706 5704 5704 5701 5701 5701 5698
5661 5663 5665 5666 5665 5665 5666 5667 5664 5661 5661 5662 5658 5660 5661 5663 5667 5668 5670 5674 5676 5679 5683 5682 5682 5681 5685 5688 5689 5691 5692 5694 5694 5695 5695 5695 5695 5694 5693 5692 5693 5692 5689
5651 5652 5653 5653 5654 5653 5653 5656 5655 5654 5654 5654 5657 5658 5659 5660 5660 5660 5662 5665 5668 5670 5672 5672 5673 5674 5676 5678 5679 5680 5681 5681 5683 5683 5683 5683 5684 5684 5683 5683 5684 5683 5681
5641 5641 5640 5641 5642 5643 5643 5643 5643 5645 5646 5646 5649 5650 5649 5649 5651 5652 5653 5654 5657 5658 5659 5660 5662 5663 5665 5667 5668 5669 5670 5672 5672 5670 5671 5673 5673 5672 5673 5674 5674 5673 5671
Wind_Speed
14 15 15 14 15 17 20 24 25 27 25 21 20 20 17 15 12 10 9 10 12 15 14 14 14 16 18 18 17 14 11 10 11 13 15 16 16 16 19 23 25 25 27
19 18 16 17 14 12 13 17 22 27 28 26 24 23 20 19 14 12 10 12 13 15 18 20 20 25 17 18 13 9 9 10 15 18 17 17 20 21 23 26 28 30 31
22 21 21 19 18 14 14 15 16 21 24 25 25 25 23 22 17 15 13 13 15 18 21 25 28 26 12 13 14 11 12 15 16 19 21 20 20 22 24 26 28 31 36
22 21 20 17 16 16 18 16 14 16 19 21 24 27 26 26 22 19 18 18 16 20 23 22 21 12 14 16 14 13 14 16 18 21 23 25 26 27 28 28 28 31 35
22 19 17 16 20 17 15 15 15 14 16 17 23 29 29 30 25 22 22 20 15 21 21 26 24 16 12 17 16 17 16 18 18 23 25 26 27 28 30 33 36 39 41
26 22 19 19 20 17 16 16 16 15 16 18 18 27 31 30 28 26 24 24 21 20 23 22 21 20 15 17 19 23 23 23 23 27 28 26 27 28 31 35 39 41 42
35 33 24 23 20 20 22 20 20 20 22 20 20 22 28 31 29 29 26 24 22 25 26 27 26 24 26 23 20 24 26 25 27 29 29 28 28 32 33 35 37 39 41
36 32 27 26 26 24 25 24 23 27 27 27 21 22 26 30 30 31 31 32 30 27 28 32 33 34 33 29 28 29 29 29 30 33 31 28 29 32 33 34 35 37 37
30 32 29 28 30 32 29 28 29 31 29 28 24 22 24 27 30 34 38 39 38 35 34 36 39 39 39 32 34 33 33 35 35 35 33 31 31 31 32 34 34 34 32
30 24 28 35 36 35 34 33 34 35 33 32 30 28 25 24 25 30 37 38 41 40 39 43 44 44 43 45 39 39 36 40 39 34 32 33 33 31 31 33 32 30 29
35 39 35 34 35 35 37 43 35 36 43 41 35 36 36 36 34 37 42 45 44 45 47 48 49 51 51 51 38 41 36 41 39 33 32 34 32 32 32 31 28 27 30
43 42 40 38 35 38 39 42 47 46 44 43 42 40 39 45 46 45 46 48 50 50 53 55 57 59 62 58 43 41 39 40 37 34 34 33 32 32 31 28 25 27 28
46 44 43 41 37 41 43 46 46 45 53 47 48 39 40 45 44 47 51 51 54 56 62 66 69 68 68 62 41 38 36 40 38 36 34 34 33 32 30 26 25 26 28
46 46 46 46 46 45 47 52 50 55 49 55 48 50 56 47 50 50 52 52 57 62 61 74 74 66 70 44 29 31 37 33 32 34 35 33 33 31 28 24 24 27 29
50 53 54 56 57 49 55 54 60 56 58 58 61 59 64 58 56 49 56 61 63 63 73 80 68 45 50 23 29 31 28 30 33 32 33 32 32 30 26 23 25 27 28
43 52 56 56 57 58 60 64 64 67 67 66 66 65 63 66 65 64 67 68 68 68 70 80 41 49 24 26 29 31 29 32 32 32 31 31 30 30 25 25 26 26 28
44 45 48 52 56 56 59 62 63 64 65 69 74 76 71 69 74 74 71 69 70 72 75 53 47 36 24 28 29 31 31 32 31 30 31 30 28 27 25 24 27 27 29
49 48 53 56 57 59 61 65 70 64 69 71 75 79 77 76 76 75 73 73 72 74 55 42 41 27 28 32 31 34 31 29 30 31 30 28 28 27 26 25 27 27 30
50 51 52 51 55 60 58 63 65 70 72 76 85 82 83 83 84 79 76 74 71 63 57 46 29 25 26 29 33 31 27 28 29 29 29 28 28 27 27 25 27 27 29
53 55 53 50 50 54 55 57 61 65 77 86 83 98 94 82 71 71 73 75 73 64 24 28 28 21 25 33 29 25 27 28 28 27 30 31 28 26 26 26 26 28 27
56 52 53 51 50 50 53 53 58 52 39 21 31 26 45 68 61 65 70 70 77 49 22 24 27 24 32 37 32 28 27 28 28 28 31 31 30 28 26 25 26 28 27
54 51 53 54 53 52 46 44 36 41 32 43 30 27 37 48 47 55 49 44 33 24 22 26 28 34 37 31 28 28 28 29 28 29 31 32 31 28 27 26 27 29 28
39 43 46 50 48 44 41 36 24 20 19 8 6 7 19 21 21 17 17 24 25 28 29 32 31 33 34 29 30 29 29 28 29 31 32 31 31 29 29 28 28 29 28
39 42 42 43 43 39 38 33 22 12 12 18 14 13 12 11 17 19 22 28 30 32 38 38 38 30 32 31 30 31 30 31 32 32 30 30 31 31 32 30 29 29 28
41 40 37 35 35 35 38 36 25 20 17 16 20 20 25 19 22 24 22 25 31 37 40 35 30 31 33 33 34 32 30 30 32 33 31 30 32 33 33 33 31 29 29
38 36 34 34 36 37 40 39 35 31 29 26 27 26 27 29 27 24 27 30 35 35 31 32 35 37 35 34 33 31 31 30 31 33 34 33 34 34 35 35 33 30 30
Wind_Direction
233 227 230 230 236 240 239 242 248 252 255 250 252 252 258 259 263 262 286 301 312 321 325 322 329 331 333 348 359 7 16 12 10 360 356 342 335 324 313 308 308 297 294
240 240 240 239 239 248 257 255 255 256 256 248 247 252 255 253 249 247 277 288 300 311 308 310 312 329 327 345 359 359 356 2 357 357 349 334 324 318 313 310 309 305 298
234 238 242 251 253 257 267 266 262 268 271 259 246 249 253 251 246 234 254 277 290 306 309 308 312 334 332 352 351 348 344 345 341 336 331 317 314 311 310 310 309 302 297
233 235 240 248 258 252 252 268 278 280 287 270 243 243 246 247 246 233 243 260 277 298 309 333 350 351 335 339 331 330 332 330 329 325 318 314 313 315 313 311 306 300 298
250 249 236 239 254 252 258 276 287 295 295 283 252 241 242 245 249 241 243 255 271 287 309 314 327 327 329 323 318 321 322 321 317 312 307 307 314 315 319 317 313 309 305
248 255 232 229 243 248 248 263 275 293 301 293 284 252 248 246 250 246 251 257 262 273 304 316 326 312 306 315 315 313 309 309 307 307 306 308 311 315 316 316 310 309 307
241 253 230 234 243 241 246 253 272 289 292 299 284 271 257 250 253 252 254 263 269 270 285 303 312 307 303 302 305 309 314 312 309 305 305 309 311 315 316 310 309 307 305
251 239 228 235 242 243 251 258 265 274 284 289 282 272 259 257 256 256 260 265 270 277 278 286 294 300 301 291 296 301 311 315 312 308 306 309 310 309 312 311 308 307 307
250 247 238 241 243 245 252 259 264 269 271 276 274 268 261 261 262 263 264 269 275 274 276 282 286 290 295 283 290 296 304 309 307 304 303 308 311 312 313 309 308 311 312
245 249 247 246 242 248 251 254 259 263 260 263 264 267 264 259 255 261 266 272 273 272 271 276 279 281 283 284 291 289 302 308 306 301 305 310 308 311 311 312 311 313 313
255 247 256 248 248 253 249 257 261 260 258 262 257 263 267 265 262 260 259 264 271 269 267 268 272 276 276 280 279 284 298 307 303 300 306 305 308 309 310 309 309 312 314
260 261 264 261 258 259 263 268 272 269 269 263 262 252 262 266 265 268 267 267 268 269 269 266 266 268 271 273 275 279 291 297 303 303 302 304 306 306 308 306 308 311 314
259 262 264 261 258 258 259 267 271 272 267 268 276 266 269 256 259 261 266 268 274 275 270 265 262 260 262 267 270 280 290 288 293 297 298 302 303 306 305 303 307 307 313
258 256 255 262 263 258 259 262 268 267 274 281 275 274 278 271 271 262 261 265 264 271 275 268 262 263 255 262 270 282 285 284 285 291 296 300 302 303 300 297 300 304 313
251 252 255 258 260 257 261 267 264 268 265 268 275 274 270 276 281 278 274 269 276 275 288 263 264 240 249 254 264 276 278 280 285 289 294 296 297 297 295 295 296 304 315
250 251 254 258 260 261 261 262 258 264 265 264 263 266 265 273 274 274 270 269 277 276 272 271 292 261 246 253 266 267 273 279 282 285 288 290 295 295 293 292 296 307 315
260 263 264 264 266 270 273 272 266 263 263 261 260 259 258 258 257 259 261 265 268 268 275 269 285 249 239 262 269 266 267 275 275 280 283 285 290 291 286 289 298 309 311
267 270 269 270 273 277 275 271 270 268 270 265 261 257 254 252 252 255 258 262 268 270 271 269 263 261 242 263 270 270 264 271 272 276 278 285 288 286 283 286 296 306 308
269 270 269 273 270 272 272 271 273 271 271 270 268 262 253 248 246 249 255 260 267 273 265 269 277 253 259 262 277 268 260 262 267 271 277 282 282 283 281 281 293 303 306
265 268 268 268 269 269 273 280 281 285 285 274 266 265 250 243 246 251 254 259 265 272 237 248 247 247 263 270 264 263 263 263 267 270 275 277 277 279 279 281 291 300 301
262 265 259 259 265 275 283 283 289 298 290 246 184 180 214 233 238 244 251 255 254 260 215 233 241 257 269 273 264 258 262 263 265 265 273 277 276 278 280 281 288 296 297
272 266 263 259 269 277 275 285 284 297 296 259 265 252 235 229 250 253 255 250 229 216 233 240 245 255 270 271 267 266 262 261 265 269 274 276 273 276 279 281 287 292 295
254 256 258 261 266 267 273 275 281 310 318 333 346 305 241 240 231 231 216 217 221 232 240 241 250 270 270 270 267 262 260 261 263 266 272 276 274 275 278 279 283 287 293
256 256 259 261 262 263 270 272 273 279 275 284 301 303 271 242 232 232 237 237 247 255 247 256 262 258 256 264 259 259 261 262 262 263 270 277 276 273 275 275 277 281 287
259 254 250 252 256 259 261 268 259 260 261 278 286 266 246 264 251 258 259 251 252 252 255 254 254 254 252 254 256 256 259 264 263 262 267 272 274 271 270 272 273 279 286
257 261 264 261 258 258 259 263 257 250 258 271 266 256 249 258 254 258 262 265 254 247 252 251 249 249 249 252 254 259 262 264 267 266 267 268 271 271 268 268 270 276 282